Home > Weather > Knoxville > Past weeks

Flag for U.S.A. Weather for the Past 2 Weeks in Knoxville, Tennessee, U.S.A.

Now
42 °F

Scattered clouds.


Feels Like: 38 °F
Forecast: 20 / 38 °F
Wind: 6 mph from West

Location: McGhee Tyson Airport

Current Time: Feb 11, 2016 at 6:27:39 PM

Latest Report: Feb 11, 2016 at 4:53 PM


Visibility: 10 mi

Pressure: 30.21 "Hg

Humidity: 39%

Dew point: 19 °F

Location of KnoxvilleLocation

Historic Weather in Knoxville — Graph

°F

Knoxville Temperature Yesterday

Maximum temperature yesterday: 30 °F (at 2:53 PM)
Minimum temperature yesterday: 19 °F (at 7:53 AM)
Average temperature yesterday: 24 °F

High & Low Weather Summary for the Past Weeks

 TemperatureHumidityPressure
High75 °F (Feb 2, 3:53 PM)100% (Jan 28, 8:53 AM)30.47 "Hg (Jan 28, 8:53 AM)
Low19 °F (Feb 10, 7:53 AM)23% (Feb 6, 1:53 PM)29.67 "Hg (Feb 8, 1:53 PM)
Average42 °F64%30.04 "Hg
* Reported Jan 27 3:53 PM — Feb 11 3:53 PM, Knoxville, Weather by CustomWeather, © 2016

Note: Actual official high and low records may vary slightly from our data, if they occured in-between our weather recording intervals... More about our weather records

Advertising

Knoxville Weather History for the Previous 24 Hours

 ConditionsComfort  
Time TempWeatherWind HumidityBarometerVisibility
3:53 PM
Thu, Feb 11
42 °FScattered clouds.3 mph39%30.19 "Hg10 mi
2:53 PM41 °FScattered clouds.6 mph41%30.19 "Hg10 mi
1:53 PM38 °FPassing clouds.3 mph46%30.20 "Hg10 mi
12:53 PM38 °FScattered clouds.7 mph46%30.23 "Hg10 mi
11:53 AM36 °FPassing clouds.3 mph50%30.25 "Hg10 mi
10:53 AM32 °FPartly sunny.No wind59%30.26 "Hg10 mi
9:53 AM29 °FOvercast.3 mph66%30.26 "Hg10 mi
8:53 AM28 °FOvercast.6 mph69%30.24 "Hg10 mi
7:53 AM27 °FOvercast.3 mph72%30.22 "Hg10 mi
6:53 AM26 °FOvercast.No wind74%30.21 "Hg10 mi
5:53 AM26 °FOvercast.5 mph74%30.19 "Hg10 mi
4:53 AM26 °FOvercast.7 mph74%30.18 "Hg10 mi
3:53 AM26 °FOvercast.7 mph71%30.17 "Hg10 mi
2:53 AM26 °FOvercast.5 mph69%30.17 "Hg10 mi
1:53 AM25 °FOvercast.6 mph72%30.18 "Hg10 mi
12:53 AM25 °FOvercast.7 mph69%30.19 "Hg10 mi
11:53 PM
Wed, Feb 10
25 °FMostly cloudy.8 mph66%30.19 "Hg10 mi
10:53 PM26 °FMostly cloudy.9 mph55%30.19 "Hg10 mi
9:53 PM26 °FMostly cloudy.13 mph48%30.19 "Hg10 mi
8:53 PM27 °FMostly cloudy.14 mph42%30.17 "Hg10 mi
7:53 PM27 °FMostly cloudy.12 mph42%30.15 "Hg10 mi
6:53 PM27 °FOvercast.15 mph45%30.13 "Hg10 mi
Weather by CustomWeather, © 2016

See weather overviewHow to use our weather pages